Weather observations for the past three days for
Ephrata, Ephrata Municipal Airport
Metric (Imperial)
Date Time (pdt) Wind (kph) Vis. (km) Weather Sky Cond. Temperature (ºC) Relative Humidity Wind Chill (°C) Heat Index (°C) Pressure Precipitation (cm)
Air Dwpt 6 hour altimeter (cm) sea level (mb) 1 hr 3 hr 6 hr
Max. Min.
03 23:53 W 17 16.09 Fair CLR 22.8 2.2 26% 75.59 1006.7
03 22:53 NW 15 16.09 Fair CLR 20.6 3.3 30 15.6 32% 75.62 1007.2
03 21:53 Calm 16.09 Fair CLR 17.8 5.6 45% 75.62 1007.3
03 20:53 SW 6 16.09 Fair CLR 17.2 5.6 47% 75.59 1007.2
03 19:53 W 11 16.09 Fair CLR 23.3 4.4 29% 75.57 1006.8
03 18:53 SW 9 16.09 Fair CLR 27.8 3.3 21% 27 75.59 1007.0
03 17:53 SW 11 16.09 Fair CLR 28.9 2.2 18% 27 75.64 1007.5
03 16:53 W 17 16.09 Fair CLR 29.4 0 30 25.6 15% 28 75.69 1008.2
03 15:53 Vrbl 7 16.09 Fair CLR 28.9 -1.7 13% 27 75.77 1009.2
03 14:53 NE 9 16.09 Fair CLR 28.9 -1.7 13% 27 75.82 1010.1
03 13:53 Vrbl 6 16.09 Fair CLR 28.9 -0.6 15% 27 75.87 1010.7
03 12:53 NE 15 16.09 Fair CLR 27.8 -0.6 16% 27 75.92 1011.4
03 11:53 Calm 16.09 Fair CLR 27.2 3.3 21% 26 75.97 1012.3
03 10:53 E 9 16.09 Fair CLR 26.1 2.2 26.1 15 21% 26 76.02 1012.7
03 09:53 E 6 16.09 Fair CLR 23.9 4.4 28% 25 76.05 1013.3
03 08:53 N 15 16.09 Fair CLR 22.2 4.4 31% 76.07 1013.7
03 07:53 N 19 16.09 Fair CLR 21.1 3.9 32% 76.07 1013.5
03 06:53 NW 13 16.09 Fair CLR 17.8 3.9 40% 76.07 1013.3
03 05:53 NW 15 16.09 Fair CLR 16.1 3.9 44% 76.05 1013.3
03 04:53 NW 17 16.09 Fair CLR 15.6 3.9 18.9 15.6 46% 76.07 1013.4
03 03:53 NW 17 16.09 Fair CLR 17.2 4.4 43% 76.05 1013.0
03 02:53 NW 15 16.09 Fair CLR 17.2 4.4 43% 76.05 1012.9
03 01:53 NW 15 16.09 Fair CLR 18.3 4.4 40% 76.05 1013.0
03 00:53 NW 13 16.09 Fair CLR 18.9 4.4 39% 76.05 1012.9
02 23:53 N 9 16.09 Fair CLR 17.2 4.4 43% 76.02 1012.9
02 22:53 N 9 16.09 Fair CLR 17.8 3.9 28.3 16.7 40% 76 1012.7
02 21:53 NW 9 16.09 Fair CLR 18.3 3.9 39% 76.02 1012.8
02 20:53 N 9 16.09 Fair CLR 20 4.4 36% 75.97 1012.4
02 19:53 N 9 16.09 Fair CLR 24.4 3.3 25% 25 75.92 1011.7
02 18:53 E 7 16.09 Fair CLR 27.2 2.2 20% 26 75.92 1011.4
02 17:53 NE 13 16.09 Fair CLR 28.3 1.7 18% 27 75.95 1011.6
02 16:53 NE 15 16.09 Fair CLR 28.3 1.7 28.3 22.8 18% 27 75.95 1011.9
02 15:53 Vrbl 6 16.09 Fair CLR 27.8 3.3 21% 27 76 1012.5
02 14:53 Vrbl 9 G 28 16.09 Fair CLR 28.3 3.3 20% 27 76.05 1013.3
02 13:53 N 13 16.09 Fair CLR 26.7 2.8 21% 26 76.1 1013.9
02 12:53 NE 11 16.09 Fair CLR 26.1 3.3 23% 26 76.12 1014.4
02 11:53 NE 9 16.09 Fair CLR 24.4 3.9 26% 25 76.17 1014.9
02 10:53 NE 11 16.09 Fair CLR 22.8 3.3 23.9 15 28% 76.17 1015.0
02 09:53 N 20 16.09 Fair CLR 23.3 3.3 27% 76.15 1014.6
02 08:53 NE 19 16.09 Fair CLR 20 5 38% 76.17 1014.9
02 07:53 NE 15 16.09 Fair CLR 17.2 5.6 47% 76.15 1014.7
02 06:53 E 13 16.09 Fair CLR 15 5.6 54% 76.12 1014.5
02 05:53 NW 15 16.09 Fair CLR 16.1 3.3 43% 76.12 1014.4
02 04:53 NW 17 16.09 A Few Clouds FEW120 16.1 3.9 16.7 12.2 44% 76.12 1014.2
02 03:53 N 9 16.09 Fair CLR 15 4.4 49% 76.12 1014.2
02 02:53 N 11 16.09 Fair CLR 13.3 5 57% 76.12 1014.3
02 01:53 NW 9 16.09 Fair CLR 14.4 4.4 51% 76.1 1014.2
02 00:53 N 13 16.09 Fair CLR 14.4 3.3 48% 76.1 1014.1
01 23:53 N 9 16.09 Fair CLR 16.7 2.2 38% 76.1 1013.9
01 22:53 NW 9 16.09 Fair CLR 16.7 2.8 24.4 16.7 40% 76.07 1013.7
01 21:53 NW 7 16.09 Fair CLR 17.2 3.9 41% 76.07 1013.9
01 20:53 Calm 16.09 Fair CLR 17.8 3.9 40% 76.05 1013.6
01 19:53 NE 9 16.09 Fair CLR 20.6 3.3 32% 76.02 1013.2
01 18:53 SE 6 16.09 Fair CLR 23.3 2.2 25% 76.02 1013.3
01 17:53 S 13 16.09 Fair CLR 23.9 2.2 24% 25 76.05 1013.8
01 16:53 S 9 16.09 Fair CLR 24.4 1.1 25.6 20.6 22% 25 76.07 1014.0
01 15:53 SW 11 16.09 Fair CLR 24.4 1.1 22% 25 76.12 1014.7
01 14:53 Vrbl 9 16.09 Fair CLR 24.4 0.6 21% 25 76.17 1015.3
01 13:53 S 9 16.09 Fair CLR 23.9 1.1 22% 25 76.23 1015.7
01 12:53 Vrbl 11 16.09 Fair CLR 23.9 0.6 22% 25 76.25 1016.1
01 11:53 E 7 16.09 Fair CLR 22.8 0.6 23% 76.28 1016.5
01 10:53 NE 7 16.09 Fair CLR 20.6 1.7 20.6 4.4 29% 76.3 1017.2
01 09:53 Vrbl 7 16.09 Fair CLR 18.9 3.3 36% 76.33 1017.2
01 08:53 NE 13 16.09 Fair CLR 16.1 2.8 41% 76.35 1017.5
01 07:53 N 9 16.09 Fair CLR 13.3 4.4 55% 76.33 1017.5
01 06:53 N 9 16.09 Fair CLR 8.3 2.8 69% 7 76.3 1017.3
01 05:53 NE 13 16.09 Fair CLR 5 1.1 76% 2 76.28 1016.9
01 04:53 NW 6 16.09 Fair CLR 7.2 1.1 14.4 6.7 66% 76.28 1016.7
01 03:53 N 9 16.09 Fair CLR 7.8 2.2 68% 6 76.28 1016.8
01 02:53 N 11 16.09 Fair CLR 8.3 2.8 69% 7 76.28 1016.7
01 01:53 N 11 16.09 Fair CLR 11.1 0.6 49% 76.28 1016.6
Date Time (pdt) Wind (kph) Vis. (km) Weather Sky Cond. Air Dwpt Max. Min. Relative Humidity Wind Chill (°C) Heat Index (°C) altimeter (cm) sea level (mb) 1 hr 3 hr 6 hr
6 hour
Temperature (ºC) Pressure Precipitation (cm)